GFSCGP_sfc_30mbdewp_030.txt.gz
Dewpoint
26 21 16 16 15 14 15 16 16 17 17 14 17 20 24 26 36 38 41 42 42 43 44 45 46 46 44 45 45 47 46 46 45 45 43 43 43 44 45 44 45 44 43 42
22 19 18 18 23 24 19 19 18 19 21 15 19 23 28 32 36 39 40 41 42 43 43 43 44 44 45 45 44 44 43 42 43 44 44 44 44 44 43 43 43 42 40 39
20 18 18 24 23 23 27 23 22 20 22 21 22 23 29 32 34 37 39 41 42 42 42 42 43 44 43 42 42 42 42 42 43 43 43 44 44 43 42 42 41 40 38 38
20 21 24 25 23 24 26 27 24 22 20 11 20 18 24 29 31 34 37 40 41 42 43 43 43 43 42 42 42 42 42 43 43 44 43 42 42 40 42 41 40 39 38 37
22 26 26 25 24 24 24 25 25 24 22 24 23 19 22 30 30 33 36 39 41 42 42 43 43 43 43 42 42 42 42 43 44 44 44 43 41 43 42 41 38 36 37 36
24 28 26 26 27 26 25 27 30 28 26 22 27 23 23 27 30 33 35 37 39 40 42 43 44 44 43 44 43 43 43 42 44 44 43 43 42 41 39 37 35 36 36 35
25 27 28 28 27 28 27 28 24 23 24 22 30 28 29 31 33 35 35 36 37 38 40 42 42 43 44 43 43 43 42 42 42 42 41 41 40 39 37 35 34 34 34 35
24 24 27 28 26 25 26 28 22 18 19 21 26 27 30 35 36 36 36 36 36 36 38 40 40 41 41 41 41 41 40 41 42 42 39 40 40 37 36 35 36 36 36 36
26 24 28 25 28 28 26 24 26 27 29 23 26 28 30 33 34 34 36 38 38 36 36 38 38 39 40 40 40 37 38 40 38 38 35 35 38 37 35 36 37 37 36 36
27 23 26 25 27 29 23 25 25 25 19 19 23 26 28 31 33 34 34 34 35 36 36 37 38 38 39 40 39 38 37 35 34 33 33 32 35 37 36 37 36 35 35 36
30 26 22 27 22 23 23 25 26 26 25 19 19 20 27 31 34 32 32 34 34 35 36 37 37 36 36 36 35 36 35 33 31 31 31 34 36 36 36 34 34 34 35 34
29 25 22 22 25 26 24 26 26 19 20 25 24 22 31 31 31 32 33 34 35 35 36 36 36 36 35 34 33 35 34 32 30 30 29 29 35 36 34 33 32 33 32 34
31 25 20 23 27 28 22 25 30 28 26 21 16 16 30 32 33 34 34 35 36 36 36 36 35 34 34 33 32 31 33 30 30 29 28 28 29 34 33 32 33 34 34 33
36 28 23 16 22 22 17 19 27 26 23 23 21 21 26 33 33 34 36 37 37 36 36 35 35 34 34 33 29 28 31 32 31 31 28 28 29 30 32 33 33 34 35 35
33 27 29 28 24 23 21 20 20 21 23 22 21 25 30 34 34 35 37 37 37 36 36 35 35 35 34 31 27 26 26 28 28 27 29 32 32 32 32 32 34 36 36 34
36 29 27 20 29 26 19 20 25 26 24 24 28 32 35 35 37 37 37 37 36 35 35 35 33 32 31 29 27 25 25 24 25 30 31 33 33 33 34 35 35 36 37 36
34 31 24 8 29 24 12 25 26 23 26 25 23 31 33 34 35 37 37 36 34 35 34 33 31 30 28 25 24 22 22 22 23 29 31 33 33 34 34 35 36 36 36 29
33 32 29 15 22 6 22 28 26 30 34 33 34 34 34 34 37 37 36 33 32 33 32 31 25 23 23 23 22 21 20 20 24 28 31 32 33 33 33 34 35 33 29 31
34 30 23 14 20 18 24 28 27 25 31 36 35 35 35 36 36 36 36 34 33 34 28 19 18 20 19 19 19 20 19 19 25 28 29 29 32 34 34 32 31 31 33 33
36 31 21 27 12 6 22 29 30 29 25 38 38 36 35 33 29 30 35 36 34 19 17 16 16 17 17 18 19 20 19 22 26 27 28 30 33 32 34 34 34 34 34 27
33 34 29 25 20 22 26 31 30 25 22 39 38 37 35 32 31 33 36 27 21 16 17 17 17 17 18 19 20 20 23 25 27 28 28 28 29 31 34 34 33 32 26 25
24 24 28 28 25 17 30 32 28 30 39 38 38 37 35 35 36 34 24 21 17 18 18 18 18 18 20 21 22 24 25 26 27 28 28 27 28 29 33 32 32 27 24 23
23 23 23 28 24 28 34 33 37 40 39 38 37 38 36 35 29 23 19 18 18 18 17 18 19 20 21 23 26 26 26 27 28 28 27 27 27 29 28 26 23 23 23 22
30 33 30 31 31 33 37 40 40 40 39 39 38 38 36 27 23 19 18 17 17 18 19 20 21 22 23 27 28 28 28 28 28 27 26 27 24 26 26 23 23 22 22 21
27 35 32 32 37 40 40 40 39 39 38 39 38 31 24 21 18 18 17 17 20 21 22 23 23 25 26 28 29 29 29 29 28 28 26 25 23 26 26 25 23 23 23 22
36 31 31 30 34 35 37 40 40 39 38 38 26 21 19 19 17 17 18 21 23 23 23 25 26 26 29 29 29 29 31 30 29 28 27 25 22 26 26 25 23 24 25 26

GFSCGP_sfc_30mbdewp_033.txt.gz
Dewpoint
25 19 16 16 16 16 16 14 16 16 17 16 18 25 30 36 38 40 43 42 42 43 45 46 47 46 48 50 51 51 49 48 46 46 46 44 42 43 43 41 40 39 39 38
21 19 19 23 26 21 20 17 17 20 22 20 27 30 34 37 40 42 42 42 42 42 43 44 46 46 47 46 44 42 42 42 43 43 44 43 43 43 41 41 40 39 38 37
19 18 24 23 25 24 26 22 22 20 21 23 25 26 32 36 39 41 42 42 42 41 42 44 45 45 44 42 42 41 41 41 42 43 44 44 44 44 41 40 39 39 38 38
20 27 25 24 22 26 24 27 24 22 18 17 20 21 28 32 35 39 41 41 42 42 44 45 43 42 42 42 43 42 42 43 43 43 42 41 40 39 42 41 39 37 37 36
22 26 25 24 24 24 24 25 24 24 22 23 23 23 24 32 34 37 39 41 42 42 42 42 42 42 42 42 42 42 43 44 45 44 44 42 41 42 41 38 36 36 35 36
26 28 26 25 27 26 26 28 30 30 26 21 26 22 24 29 32 35 38 40 41 42 42 43 43 43 43 43 43 42 42 43 44 43 43 42 42 40 38 36 35 35 35 36
27 27 28 29 27 27 28 28 24 23 23 22 28 27 27 29 32 35 37 39 40 41 42 43 43 43 44 43 43 42 42 42 42 42 41 41 40 38 36 34 33 34 34 35
24 23 26 27 26 25 27 27 20 20 20 20 27 26 29 35 35 36 37 38 38 39 40 42 42 42 41 41 41 41 42 41 41 39 39 40 38 36 35 35 35 35 35 35
24 23 28 26 28 27 27 23 26 27 28 22 26 29 33 34 35 36 35 36 37 37 37 39 39 40 40 40 38 38 40 39 40 37 36 38 38 36 35 35 36 36 36 36
28 23 26 25 27 27 23 27 24 24 17 17 22 27 28 32 34 35 36 38 36 37 38 38 38 38 39 39 37 38 39 36 33 32 32 32 33 36 36 36 36 37 36 35
29 23 22 27 22 23 24 24 26 27 25 19 19 23 26 32 34 35 35 36 36 37 37 36 36 35 35 35 34 36 34 33 32 32 31 31 33 36 36 36 36 36 35 35
30 24 22 22 27 28 25 26 24 12 17 24 21 21 29 33 34 34 34 35 35 36 36 36 35 35 34 33 32 35 34 33 32 30 30 31 33 36 36 36 35 34 33 34
30 24 20 21 25 27 23 27 29 26 25 20 17 16 29 33 33 35 34 35 36 36 36 35 34 34 33 33 31 30 30 33 31 31 31 29 29 30 31 33 33 33 35 35
33 29 20 12 19 24 17 20 28 25 22 22 20 20 31 33 33 35 35 36 36 36 35 35 34 34 34 33 29 28 28 30 29 28 29 30 31 31 31 32 33 34 35 35
31 25 29 26 25 23 20 19 24 24 23 20 20 23 26 33 34 36 37 37 36 35 35 35 33 33 32 31 27 25 25 25 26 28 30 31 32 32 32 32 34 35 36 36
35 27 26 23 29 27 20 20 21 21 22 25 26 28 34 35 37 37 37 36 35 34 34 33 32 29 27 24 23 23 22 22 25 30 30 32 32 33 34 34 34 35 35 36
31 28 21 10 27 20 14 18 22 25 25 25 27 29 34 35 35 36 36 35 32 33 33 33 26 24 23 22 22 20 20 21 22 28 30 32 33 32 32 33 33 34 35 35
31 27 23 10 18 2 12 26 27 24 30 31 31 33 33 34 36 37 37 32 32 32 33 23 21 20 21 21 19 20 20 20 25 27 29 30 29 32 32 33 33 30 31 33
34 27 21 13 13 14 15 28 28 26 24 34 32 34 34 36 36 35 36 34 33 34 24 17 18 19 18 17 19 20 20 20 25 28 28 28 30 32 32 33 32 33 33 32
32 26 18 23 9 3 10 29 30 29 24 36 35 34 34 36 32 32 36 35 31 19 16 16 17 18 18 19 20 20 19 23 26 27 27 29 28 30 30 33 32 33 32 28
33 33 27 22 16 18 21 30 30 24 15 38 37 36 35 34 33 32 36 32 18 16 17 18 18 18 19 20 21 21 23 25 26 28 28 28 27 28 29 33 31 32 30 26
26 27 27 26 25 16 28 30 27 28 35 38 38 37 36 34 35 36 27 19 18 18 17 18 19 20 22 22 23 24 25 27 27 28 28 27 27 29 29 32 31 26 25 23
23 23 22 27 22 28 31 31 33 36 36 38 38 38 36 36 35 24 18 19 18 17 18 20 20 22 24 25 26 27 27 28 28 28 27 27 26 26 28 25 24 23 23 21
31 31 26 28 27 30 31 37 40 40 39 38 39 38 37 35 26 19 18 18 17 19 20 22 23 24 24 26 28 29 29 29 28 28 27 27 25 24 27 24 23 22 22 21
30 33 30 31 33 39 39 39 39 39 39 39 39 37 33 25 19 18 17 18 20 22 22 24 25 25 26 29 28 29 30 30 28 28 28 27 26 24 26 26 24 23 23 22
34 30 28 24 30 33 33 39 39 38 38 38 30 24 22 20 18 17 19 21 23 22 24 25 25 27 29 28 28 29 31 30 28 28 29 28 26 23 25 24 23 23 25 26

GFSCGP_sfc_30mbdewp_036.txt.gz
Dewpoint
24 17 15 15 15 15 15 13 13 16 18 22 31 32 36 38 41 42 43 44 44 45 45 47 49 51 53 53 55 57 58 56 52 49 45 43 42 41 40 40 40 40 39 37
21 17 19 26 23 22 18 16 18 21 21 25 31 33 37 39 41 42 42 42 42 43 45 46 48 49 49 50 51 49 46 45 44 44 43 42 42 41 40 40 39 39 37 36
18 20 24 25 25 23 25 20 21 20 24 25 26 28 34 38 41 42 42 42 42 43 44 45 45 45 43 41 41 41 41 41 42 43 44 44 43 42 40 40 38 38 37 36
24 27 24 22 22 26 22 26 23 21 17 17 21 17 29 35 39 41 41 41 41 42 44 45 43 41 41 41 42 41 42 42 43 44 42 41 40 39 41 40 38 37 36 37
24 25 24 23 24 24 24 26 25 24 22 21 22 21 26 36 38 39 40 41 41 43 43 42 41 41 42 42 42 42 43 43 44 44 43 42 41 42 40 38 36 36 35 37
27 28 26 25 27 26 26 29 29 29 26 22 26 22 23 32 35 37 39 41 41 42 42 42 42 42 42 43 42 43 43 43 43 43 43 42 42 40 37 36 35 34 35 35
27 27 28 28 26 27 29 27 22 23 23 21 27 25 24 29 33 37 38 40 41 41 42 42 43 42 43 42 43 42 42 42 42 42 42 42 41 39 37 35 34 33 33 34
23 20 26 26 26 25 28 26 23 20 22 22 27 26 28 34 33 37 39 40 40 41 42 42 43 43 43 42 42 42 42 41 41 40 40 39 38 36 35 34 34 34 34 35
24 23 28 27 29 27 27 22 26 26 27 21 24 29 33 35 35 36 37 38 39 39 40 40 41 41 40 39 38 40 41 41 40 37 38 38 37 36 35 36 35 35 36 36
28 23 25 25 27 27 24 29 23 23 13 12 21 25 27 33 34 35 36 36 37 37 38 38 38 39 39 37 37 38 40 37 38 34 34 33 33 35 36 36 35 36 36 36
28 22 22 27 22 24 25 24 26 26 24 15 15 20 29 33 34 35 35 38 37 37 37 36 35 35 34 33 34 36 36 33 33 32 32 32 32 35 36 36 36 36 36 35
29 23 21 22 26 29 25 25 22 7 13 23 21 19 30 33 35 36 36 36 37 36 35 35 34 34 33 33 32 35 35 34 33 32 31 31 30 31 32 33 34 35 34 34
28 24 20 19 22 26 23 28 27 24 25 20 15 11 32 34 34 35 35 36 36 36 35 34 33 33 33 33 30 30 31 32 30 29 28 28 31 31 30 31 32 32 33 34
30 26 21 15 16 23 18 25 27 24 20 20 19 17 28 32 33 34 35 35 36 36 34 34 34 34 33 33 29 26 25 25 25 26 28 30 30 31 31 32 32 33 34 35
28 23 27 25 26 23 19 19 25 23 22 17 16 21 23 31 33 34 35 36 36 35 35 34 33 32 31 27 25 24 23 23 24 26 29 30 32 33 33 33 33 33 34 35
33 26 25 24 28 27 22 21 21 24 23 24 24 22 30 34 36 36 36 36 35 34 33 33 31 28 24 22 21 21 20 21 23 27 29 32 32 32 31 32 32 33 33 34
28 27 24 16 25 18 12 17 19 22 25 22 19 21 34 34 35 36 36 36 34 33 33 33 26 22 22 21 20 18 20 22 22 27 30 30 31 29 31 32 33 32 30 31
28 24 18 7 14 -3 7 26 25 23 25 27 28 30 33 34 36 37 37 36 33 33 33 27 22 21 21 20 19 19 20 21 23 26 28 28 28 29 32 31 32 31 32 34
31 24 18 9 11 10 9 23 26 25 22 31 30 32 34 36 36 36 38 34 31 32 32 21 19 19 18 18 19 20 20 19 23 27 27 27 29 28 29 29 32 31 32 32
28 24 19 20 6 -2 8 27 30 28 22 30 33 33 34 35 31 32 36 35 34 31 18 16 18 18 18 19 20 20 20 22 25 26 27 28 28 27 27 28 31 30 32 31
32 30 24 19 14 15 19 29 30 21 15 33 35 34 35 33 34 33 36 35 26 17 17 17 18 18 20 21 22 21 23 25 26 27 28 28 27 27 28 30 30 31 30 28
25 25 25 24 22 13 26 30 26 27 30 33 36 35 35 35 33 35 32 20 17 18 18 18 19 20 23 24 24 24 25 27 28 28 28 28 27 26 28 29 32 27 26 23
23 25 20 25 20 26 28 31 33 34 33 36 37 37 37 35 35 30 21 21 19 17 18 20 21 22 24 25 27 27 28 29 29 28 28 27 27 25 25 26 24 25 24 22
31 30 25 26 24 28 31 31 37 38 36 38 39 38 38 36 32 23 21 19 17 19 20 22 22 23 24 28 29 28 28 29 29 28 28 28 27 26 25 26 24 23 22 21
29 31 29 29 30 32 34 37 36 38 39 39 39 38 36 32 24 19 18 18 19 21 22 23 24 24 25 29 28 28 29 30 29 29 28 29 29 27 24 25 25 25 24 22
32 28 26 22 26 30 30 35 39 39 39 39 35 32 26 23 22 20 19 21 22 22 22 24 25 26 28 28 27 27 28 28 29 29 28 29 29 27 24 24 23 24 24 24

GFSCGP_sfc_30mbdewp_039.txt.gz
Dewpoint
24 17 13 13 13 12 13 13 14 17 20 29 32 34 36 41 43 43 44 44 45 46 49 52 54 56 58 59 59 58 57 57 53 49 47 44 44 42 41 41 42 41 40 40
20 16 19 26 21 19 18 17 19 22 24 29 32 34 38 40 42 42 43 44 46 48 50 51 52 54 56 57 58 58 54 53 50 46 45 44 43 42 41 40 41 40 39 39
19 20 24 26 25 22 24 21 20 20 25 28 28 28 35 39 42 42 43 44 46 47 47 47 48 49 51 52 53 54 53 50 48 46 45 45 44 42 40 40 39 38 38 38
25 27 23 23 25 25 22 25 23 20 19 17 23 14 29 37 40 41 42 43 44 45 46 44 42 42 43 43 44 44 45 45 45 45 45 44 42 41 43 41 39 37 38 38
24 25 24 23 24 23 26 27 25 23 22 22 22 19 26 37 39 41 42 42 42 44 44 42 41 42 43 44 44 44 45 45 46 46 45 44 44 43 41 39 39 39 38 38
27 28 27 26 28 26 31 29 29 29 27 20 24 21 21 33 36 41 41 41 42 43 43 42 42 43 43 45 45 45 44 44 45 45 45 45 44 42 40 39 38 37 37 37
26 27 28 28 27 28 29 26 20 17 21 19 27 27 27 29 34 41 40 40 42 43 42 42 42 42 42 43 43 44 44 43 44 44 44 44 43 42 41 39 37 36 34 34
21 17 25 27 26 26 28 27 23 16 21 24 27 25 27 34 34 39 40 40 41 42 42 42 43 43 44 45 44 44 43 42 42 42 42 42 41 39 38 37 37 37 36 36
23 23 27 27 29 28 27 22 26 25 26 22 22 27 31 35 35 38 39 40 40 41 42 43 44 44 43 42 42 44 42 42 40 40 41 40 40 39 38 38 38 38 38 37
27 23 25 25 27 28 27 29 24 24 12 10 18 23 23 32 33 37 38 39 40 40 40 41 41 41 41 39 39 41 41 40 40 37 36 35 35 35 37 38 37 37 37 36
27 24 23 26 22 25 26 26 26 26 24 10 9 12 30 32 34 35 37 39 39 39 39 38 37 37 36 35 37 38 38 35 35 34 34 34 34 34 35 34 33 33 34 33
28 24 22 23 26 29 26 25 24 11 12 24 22 15 28 33 35 37 37 38 38 38 36 35 35 34 34 33 36 36 35 35 34 33 33 31 32 33 31 30 31 33 33 33
27 24 20 20 22 26 24 28 25 23 25 19 16 9 29 34 34 36 37 37 37 36 35 34 34 33 34 32 31 31 32 30 28 28 27 31 32 31 30 31 33 32 31 31
28 25 21 19 17 24 20 28 25 23 18 18 20 16 20 31 34 35 36 37 36 36 35 33 34 33 34 31 29 26 27 26 25 25 28 31 31 32 32 33 32 31 32 32
28 22 24 24 26 24 20 21 27 24 22 16 15 18 20 24 33 35 36 36 36 35 34 34 33 32 31 28 27 25 24 24 24 24 29 30 33 33 32 30 32 31 33 32
32 25 25 24 28 26 22 22 21 26 25 23 23 22 26 31 35 35 35 36 35 35 34 34 32 29 26 24 23 22 21 23 25 24 29 32 33 31 30 31 31 32 32 30
28 27 24 17 23 18 16 19 22 22 24 24 20 22 32 32 34 35 36 36 36 35 34 33 28 25 24 22 21 20 21 23 23 24 29 30 30 29 29 30 30 31 32 31
25 22 18 10 12 -1 8 25 23 21 22 25 25 28 32 33 36 37 37 37 36 34 33 32 25 23 22 21 20 21 21 22 22 27 28 28 28 29 29 28 28 31 31 32
28 22 17 10 10 10 6 17 21 24 17 27 26 29 34 36 36 36 38 37 36 34 34 28 23 21 21 19 20 21 21 21 24 26 27 27 29 28 27 27 29 30 29 31
27 24 21 19 7 3 5 23 31 28 21 27 32 31 34 35 32 33 37 37 33 34 25 20 20 19 20 20 22 22 21 23 25 27 28 28 29 28 27 28 28 29 31 30
30 29 25 19 16 16 18 24 30 16 11 28 34 34 35 33 35 35 37 35 33 23 17 19 19 19 21 23 23 22 23 25 27 28 28 28 29 28 27 27 28 30 31 30
23 24 24 23 21 12 25 30 24 25 29 31 35 34 35 35 34 36 35 27 19 18 19 19 20 20 23 25 25 24 25 27 29 29 29 28 28 27 26 26 27 29 27 26
22 26 21 24 19 25 26 31 33 34 32 33 35 36 36 35 35 31 25 19 21 20 19 21 20 22 24 25 27 27 28 29 28 29 29 28 28 28 26 25 25 25 26 26
30 30 26 25 24 27 30 31 32 35 36 36 38 38 37 36 34 23 21 19 18 20 20 22 22 22 23 26 29 28 28 29 29 29 29 27 26 28 28 25 25 23 24 24
28 30 29 28 28 29 30 34 36 36 38 39 39 39 38 33 24 21 20 21 23 23 23 23 23 24 24 28 28 27 27 28 27 28 28 28 28 29 29 25 23 23 25 26
32 28 26 23 28 28 30 35 39 38 39 39 36 30 27 23 23 27 29 26 25 23 22 24 25 25 26 27 26 26 27 27 27 26 27 28 28 28 28 25 23 25 26 25

GFSCGP_sfc_30mbdewp_042.txt.gz
Dewpoint
26 20 12 11 11 12 12 13 8 13 21 19 19 24 28 40 41 41 42 43 44 45 49 53 55 56 57 59 59 58 58 59 59 56 52 46 44 43 43 43 43 43 42 43
21 17 23 23 19 16 14 14 17 21 21 24 27 28 32 36 41 42 42 43 45 48 51 54 56 56 57 57 58 58 58 58 56 52 47 45 44 43 42 42 43 42 42 40
18 23 26 23 21 19 21 19 20 18 24 27 25 26 32 37 40 43 44 44 46 48 51 54 55 56 57 57 57 56 54 53 49 46 46 45 45 43 41 42 41 41 40 37
24 26 24 23 23 23 19 24 22 21 19 14 24 11 27 34 35 40 43 45 47 48 48 48 47 50 51 52 51 46 47 47 48 47 44 43 40 40 43 43 41 40 37 35
24 24 23 21 23 25 24 25 23 22 20 20 20 16 22 34 34 36 41 45 46 46 44 40 39 41 42 45 45 45 45 44 45 46 45 45 44 43 43 42 42 38 37 35
26 28 27 26 28 27 30 28 27 26 24 17 17 19 8 22 28 36 41 45 46 45 41 38 39 40 42 45 46 45 44 45 46 46 46 46 44 41 39 38 35 33 33 32
25 26 28 29 27 30 28 22 13 16 17 14 26 23 14 27 32 36 41 44 44 42 40 39 40 41 42 44 45 46 44 44 46 46 44 43 41 38 34 33 30 31 30 31
18 20 24 28 27 23 25 22 14 8 13 16 27 20 24 32 34 35 41 43 42 40 39 39 40 41 42 44 44 44 43 43 43 42 41 40 36 33 32 34 35 34 34 35
20 21 27 28 30 28 27 22 28 26 28 23 17 23 28 33 34 34 40 41 39 39 40 40 42 43 43 44 46 45 43 42 41 40 40 39 37 36 35 36 37 36 37 33
27 22 26 26 28 29 28 28 23 23 16 8 8 14 11 28 32 34 38 38 38 39 40 41 42 44 44 43 43 44 42 40 39 38 37 35 34 34 35 36 35 31 26 24
28 24 26 26 23 22 27 25 25 23 24 10 6 5 27 28 31 33 37 38 37 39 41 42 42 43 42 39 39 40 39 37 36 35 35 35 32 32 32 27 25 25 26 25
30 28 26 24 26 28 26 25 23 14 15 25 23 8 24 31 35 34 35 37 38 40 40 41 40 39 37 36 36 36 36 35 35 34 32 29 27 27 24 23 25 27 27 27
29 27 24 23 24 28 24 26 24 24 25 19 20 6 25 30 33 35 36 37 39 40 39 38 37 36 35 34 34 33 34 32 30 27 24 24 24 24 23 25 27 28 28 27
29 28 24 19 19 24 23 25 24 20 19 13 15 5 17 24 28 32 35 37 39 39 37 36 35 35 33 32 32 30 31 28 25 21 20 21 23 26 27 28 28 28 28 29
32 25 25 25 24 23 22 22 25 21 19 19 9 9 7 15 21 26 33 37 38 37 36 35 34 34 32 31 30 31 26 23 21 19 19 21 27 30 29 28 29 29 29 29
33 28 28 26 27 25 23 22 21 24 22 21 19 16 19 23 28 30 35 37 37 36 36 35 34 32 30 29 28 25 21 21 22 20 20 24 29 29 27 28 28 28 29 29
32 31 27 21 23 22 20 23 21 20 22 23 18 19 23 26 28 30 34 36 36 36 35 35 32 30 27 26 22 20 20 22 21 20 21 27 28 26 26 27 27 27 28 29
31 29 28 22 16 7 12 21 21 21 21 21 22 22 24 26 31 33 34 35 36 36 35 33 30 27 24 21 20 21 20 21 20 20 23 25 25 25 26 27 27 28 28 30
29 27 22 22 15 13 8 16 16 19 14 23 22 22 29 34 35 34 36 36 37 36 35 32 27 24 21 20 21 20 20 19 19 20 23 24 25 25 26 26 26 28 28 29
29 30 29 23 19 15 16 25 31 29 18 27 28 29 31 34 30 19 37 37 37 35 33 28 23 21 20 21 21 20 18 18 19 22 24 25 25 26 26 26 26 27 27 27
33 33 31 29 27 23 21 22 31 19 16 29 31 31 34 32 31 37 38 38 36 33 27 22 19 21 21 22 22 19 16 19 22 25 26 25 25 26 26 25 25 25 27 27
26 29 28 28 26 18 24 30 25 29 32 31 34 34 36 36 37 37 38 35 30 23 19 22 21 21 22 22 21 15 17 20 25 26 25 25 26 26 25 25 25 25 25 24
26 29 28 26 24 29 28 31 34 35 34 34 35 35 37 38 36 36 34 29 23 21 22 21 21 21 22 21 21 20 21 24 24 25 25 26 27 25 24 25 25 23 24 24
30 31 29 27 25 27 30 31 32 34 34 35 36 37 37 37 37 33 27 23 23 24 26 29 23 20 18 22 24 23 24 25 24 25 26 26 25 24 24 24 24 23 23 23
30 31 29 29 28 27 30 34 38 39 40 39 40 40 39 38 33 26 24 25 29 33 28 24 21 19 19 21 24 24 24 25 25 25 25 25 25 25 25 24 24 23 23 23
31 31 30 29 33 34 33 38 41 40 40 40 37 34 34 31 25 26 31 34 33 30 23 22 23 22 22 23 23 23 25 25 25 25 25 25 26 25 26 26 24 25 24 24

GFSCGP_sfc_30mbdewp_045.txt.gz
Dewpoint
26 23 17 18 15 14 12 5 6 6 9 8 9 16 25 31 32 33 37 38 39 41 44 49 50 50 48 54 57 58 58 58 58 57 54 53 49 46 44 44 44 44 44 44
22 22 21 15 12 11 9 13 8 12 11 18 13 16 23 31 32 32 35 39 41 43 47 50 52 53 55 57 58 58 57 58 58 55 51 48 45 43 43 44 45 44 44 41
26 23 23 17 13 12 13 12 22 15 17 16 18 18 26 30 32 36 37 38 40 43 47 51 53 55 56 56 57 57 56 54 51 46 45 45 44 44 42 43 43 43 42 39
27 29 21 15 15 16 16 22 18 17 18 13 19 11 21 29 32 37 39 40 42 45 49 52 53 56 57 57 55 53 49 46 45 44 43 42 40 41 43 42 41 42 40 38
21 20 17 15 21 21 24 23 20 17 13 16 18 11 21 28 28 33 38 41 44 47 48 49 50 51 50 51 48 44 44 43 45 45 43 44 43 43 42 41 43 42 40 36
32 27 24 25 24 23 26 23 22 19 16 16 13 15 11 22 24 30 36 41 44 45 45 42 43 44 44 47 45 45 44 43 45 46 46 45 45 41 39 40 38 36 33 31
22 22 26 26 23 26 23 21 18 17 13 13 21 18 11 19 28 27 36 41 44 44 41 38 38 38 42 44 45 45 44 44 45 46 46 44 43 40 37 35 33 31 30 30
17 20 22 24 24 22 21 19 15 9 8 10 21 9 21 29 32 33 38 41 44 44 40 38 38 38 41 44 45 45 44 44 46 45 43 42 39 35 34 32 33 33 33 33
20 18 25 26 26 23 22 17 24 20 29 19 9 14 29 30 31 33 37 41 43 41 39 38 39 40 41 44 44 45 44 43 43 42 40 38 37 34 33 34 35 34 35 31
21 18 23 25 27 27 25 26 19 18 15 8 4 6 14 23 26 31 36 40 41 40 38 38 39 41 43 44 45 46 45 43 41 40 38 36 34 33 34 35 34 32 28 25
20 19 24 25 21 16 25 22 20 20 20 14 6 8 16 20 25 29 33 39 40 39 39 39 40 42 44 45 45 46 43 41 37 36 36 36 34 33 33 31 26 24 26 25
24 21 19 22 24 26 24 20 21 18 14 18 23 11 20 23 25 28 31 36 38 38 39 40 41 43 44 43 42 42 39 36 35 35 36 33 33 30 27 24 23 25 26 27
29 19 16 21 24 26 23 22 21 20 22 17 17 14 22 24 25 26 28 32 36 37 38 40 41 42 42 40 40 39 37 35 35 34 33 29 27 26 23 23 26 26 26 27
31 19 19 18 17 22 24 23 22 21 20 15 11 11 13 20 20 22 26 28 33 36 38 40 40 40 39 38 38 36 34 35 33 30 24 23 24 23 24 25 27 26 27 27
31 25 22 21 24 23 21 20 20 21 21 17 16 9 3 6 11 18 22 26 30 36 39 39 38 38 37 36 34 32 34 31 30 23 21 20 21 26 27 27 27 27 28 28
32 26 28 27 25 25 22 22 20 18 19 14 13 12 14 19 18 20 21 27 29 35 37 37 37 37 36 33 32 32 30 28 22 22 21 19 22 25 26 25 27 26 26 27
33 30 28 23 24 22 21 22 19 17 18 18 17 17 20 22 21 22 24 29 30 33 36 37 36 36 35 33 31 28 26 23 23 22 19 19 24 24 23 24 24 25 26 27
34 32 32 24 20 12 13 17 16 19 18 16 17 17 17 19 25 28 29 30 32 34 36 37 36 35 32 30 26 25 24 25 23 19 17 19 22 23 23 23 24 25 26 27
30 30 26 26 16 15 15 12 16 16 15 15 20 17 19 28 31 29 31 32 33 36 37 37 36 32 28 24 23 27 24 21 18 17 17 19 21 22 23 23 24 25 26 28
28 30 25 26 24 21 21 23 26 24 15 19 21 23 24 29 25 26 34 34 36 37 37 36 32 28 24 24 24 25 24 19 17 16 20 20 22 22 23 24 25 25 25 26
34 34 30 30 30 27 23 23 28 18 23 25 27 25 27 25 34 36 35 37 37 37 35 32 27 24 22 26 30 26 18 14 17 21 22 22 22 22 23 25 25 24 25 26
29 33 31 34 32 22 22 26 22 32 27 30 29 30 34 34 38 37 37 37 36 34 28 25 23 23 29 27 21 15 12 17 20 23 22 22 22 23 24 25 25 25 25 26
27 29 29 28 26 28 25 25 30 31 31 31 33 34 34 36 36 37 37 35 31 25 23 24 27 30 27 23 22 20 19 21 21 22 22 22 24 25 25 23 23 24 25 25
29 31 29 26 22 24 27 30 33 35 36 36 37 37 37 36 37 37 33 28 24 25 29 32 31 28 22 19 21 22 24 24 23 23 23 24 25 24 25 24 23 24 25 25
29 30 27 27 24 27 32 37 39 39 39 39 39 39 39 39 37 32 27 26 31 33 31 26 22 23 25 20 21 23 22 24 23 23 24 25 25 25 25 24 24 25 26 26
29 29 31 30 35 36 35 39 39 39 38 38 36 33 32 32 28 30 34 34 33 28 29 31 27 23 20 20 21 21 21 22 23 24 25 25 26 26 25 25 25 26 25 25

GFSCGP_sfc_30mbdewp_048.txt.gz
Dewpoint
28 25 20 21 18 15 17 14 16 14 15 13 11 17 17 26 30 35 34 33 33 33 40 45 45 45 51 58 59 60 59 58 58 59 56 53 51 49 47 46 47 47 46 46
24 26 25 21 20 16 12 16 15 9 9 7 10 10 20 22 27 33 36 36 37 39 43 48 49 49 51 57 59 59 59 58 58 58 54 53 49 47 46 47 47 46 46 42
24 31 35 26 22 13 12 21 22 21 18 10 14 10 20 24 25 28 33 37 39 41 45 48 50 52 57 59 59 59 58 57 58 54 52 50 49 47 45 47 46 46 44 41
32 31 31 26 15 14 21 28 22 24 26 12 24 19 25 23 26 28 31 35 38 41 45 49 51 55 57 57 58 58 57 57 53 48 46 45 44 44 44 45 46 45 41 40
32 30 28 22 18 22 26 25 26 17 14 19 22 23 26 29 26 28 35 36 38 41 44 49 55 56 56 57 58 58 56 50 47 47 46 45 46 44 46 44 45 45 44 41
28 33 31 26 22 20 28 26 20 19 22 17 24 25 24 27 30 30 34 38 40 43 47 49 54 55 56 58 55 49 46 45 46 46 47 46 46 43 43 42 43 42 42 38
25 19 23 25 19 21 20 17 18 27 27 15 13 17 15 29 29 34 34 39 42 46 47 47 48 49 49 48 48 47 45 45 46 47 47 47 45 43 40 38 38 35 34 35
23 21 22 22 19 30 29 22 26 20 22 20 25 14 23 29 28 32 36 39 44 45 44 43 44 43 46 47 47 46 45 45 46 48 47 45 43 41 38 35 35 36 36 37
19 24 32 26 19 28 26 20 24 17 28 21 13 6 29 28 29 31 35 39 43 44 42 40 40 41 43 46 47 47 45 46 47 47 45 42 39 36 35 35 36 37 37 32
29 29 35 28 24 23 20 21 20 17 14 12 9 8 25 24 25 29 34 39 43 44 42 40 39 41 43 45 47 48 47 45 45 44 42 39 38 35 36 36 36 34 30 28
28 30 27 24 21 13 24 22 16 14 19 18 17 14 16 19 24 26 30 38 42 43 42 40 40 41 43 45 46 48 47 44 43 42 39 38 35 37 35 35 30 27 27 28
21 21 20 21 22 22 22 20 20 22 18 21 21 21 19 21 24 26 28 36 40 42 41 40 40 42 43 46 47 47 47 42 40 38 37 36 38 37 33 30 26 26 28 29
25 23 19 18 21 24 23 18 18 19 24 22 22 18 22 22 22 23 24 31 37 40 40 40 40 43 44 45 44 45 43 41 37 36 36 37 37 30 28 25 26 28 28 29
33 25 19 18 16 21 22 23 19 20 24 23 22 15 14 19 21 21 25 26 31 36 38 39 40 42 44 44 42 42 40 37 37 36 35 30 28 26 26 26 28 29 29 30
29 21 17 16 18 19 22 22 19 18 20 21 23 17 14 11 18 17 21 24 25 27 34 36 40 42 42 41 40 39 37 37 35 33 29 26 23 26 28 28 29 29 30 29
31 26 28 26 26 23 23 21 19 19 18 16 18 17 16 19 23 21 21 20 21 26 32 37 39 40 40 39 38 35 35 34 33 26 25 25 22 24 27 28 28 28 29 29
31 32 31 28 26 23 20 21 21 19 18 18 17 20 19 18 19 21 23 23 27 28 30 36 38 38 39 37 36 34 33 30 25 27 28 23 22 25 26 26 25 26 27 29
33 34 34 28 22 17 19 17 14 16 15 13 13 16 16 25 26 25 26 28 29 31 32 35 38 38 37 35 34 32 28 26 29 28 22 19 21 24 25 25 25 26 28 28
33 35 32 27 22 20 19 15 16 17 17 20 19 20 20 26 27 31 30 30 30 32 35 37 38 37 34 32 28 26 28 28 25 19 18 19 22 23 23 24 25 27 28 28
28 34 29 27 25 20 24 22 22 21 15 21 20 21 23 24 26 34 33 32 31 34 37 37 34 32 29 25 27 26 25 23 22 18 21 23 24 23 23 24 26 28 27 26
34 34 31 31 29 31 25 24 26 18 28 28 28 26 29 29 37 37 36 36 36 36 36 32 30 27 28 31 29 27 26 21 20 22 26 26 25 23 23 25 26 27 27 28
34 35 33 35 34 27 23 24 24 33 29 30 30 31 33 35 36 38 36 37 36 31 28 27 25 29 29 25 24 21 24 26 26 25 25 25 24 24 24 27 27 26 26 26
27 32 33 34 32 29 24 27 30 31 32 34 34 34 34 35 34 36 36 35 29 25 27 30 30 29 30 28 25 20 22 22 25 26 25 23 24 25 26 26 26 25 25 26
29 32 31 28 23 26 28 34 38 37 37 37 38 39 38 38 38 37 34 26 26 31 32 32 30 28 25 23 28 29 26 26 24 24 24 25 25 26 26 26 26 25 26 26
32 30 28 27 26 31 36 40 40 39 40 39 38 35 36 38 35 29 31 33 32 30 28 27 28 30 30 30 26 22 22 23 24 24 25 25 26 27 28 28 26 25 27 27
32 30 31 33 38 38 38 36 37 36 35 34 32 33 33 33 33 33 33 31 27 29 31 33 32 28 23 20 20 21 22 21 23 24 26 27 28 29 28 27 26 28 27 28

GFSCGP_sfc_30mbdewp_051.txt.gz
Dewpoint
29 28 24 23 21 20 18 19 17 16 19 21 27 27 30 33 35 34 33 31 32 34 37 39 47 53 55 58 59 58 57 57 57 58 57 56 52 49 47 47 47 47 47 45
25 29 29 30 30 25 20 18 19 22 18 17 15 19 27 29 33 33 31 31 31 35 41 42 47 55 57 58 59 58 58 57 57 58 57 53 50 48 47 47 48 47 45 44
26 29 30 29 30 30 27 24 22 21 25 19 16 17 19 25 28 36 35 33 35 42 44 47 49 55 58 59 59 58 58 57 57 59 55 52 49 48 47 46 47 46 43 41
28 31 27 28 29 30 27 24 27 20 18 15 23 17 23 25 25 28 36 37 38 41 47 48 50 57 59 59 59 59 58 57 57 58 53 50 46 45 45 46 46 45 43 40
24 28 27 28 28 28 25 27 22 25 24 23 23 21 24 24 25 27 28 37 40 43 47 49 53 57 58 59 58 58 57 57 57 51 50 47 45 45 46 47 46 44 42 40
25 31 30 30 28 26 23 22 27 31 29 21 22 21 24 24 24 28 31 37 39 43 47 52 55 56 57 57 57 57 57 57 50 47 47 45 45 46 45 45 45 44 44 43
27 23 28 32 28 29 26 26 23 19 20 21 24 24 24 29 29 29 29 34 41 47 51 55 55 55 56 56 57 57 55 49 46 47 48 47 44 43 42 42 40 35 35 38
23 19 29 30 27 25 28 28 20 19 21 22 26 24 26 29 31 33 35 38 44 48 49 53 55 55 56 55 53 50 46 46 46 47 47 45 42 39 38 37 37 37 38 38
23 28 35 30 31 27 28 26 31 23 30 25 19 23 29 30 32 37 38 41 45 46 45 47 48 50 49 47 47 46 46 46 47 48 45 42 38 36 35 36 38 37 33 30
30 26 35 34 33 27 25 25 24 22 12 12 16 19 25 28 30 35 38 43 44 44 43 44 44 46 46 46 47 47 47 47 48 46 42 39 37 36 37 37 36 34 30 29
30 24 30 31 30 25 24 21 22 20 24 17 18 14 24 26 28 28 37 42 44 44 42 41 41 44 46 46 47 46 47 47 45 42 41 37 36 37 37 36 34 28 28 29
28 29 30 27 32 31 23 23 25 18 17 23 22 19 22 25 27 28 28 41 44 44 43 41 40 43 45 46 47 47 47 44 42 39 38 38 38 38 37 36 28 29 29 30
31 24 19 24 25 26 23 22 20 21 28 21 18 18 23 22 23 25 27 38 43 44 43 41 41 41 45 46 48 48 43 39 39 38 37 37 37 37 34 29 29 30 29 30
31 27 23 18 18 21 21 23 23 21 21 21 21 22 22 22 22 23 23 27 39 43 42 41 40 42 46 47 47 45 39 38 38 38 37 36 36 34 29 29 30 30 30 29
29 24 23 20 22 25 22 23 23 22 22 21 21 22 22 21 22 22 27 27 26 33 40 40 42 46 46 46 44 39 38 37 37 35 32 27 27 29 29 30 30 30 29 29
32 26 25 25 28 25 23 23 23 22 20 19 20 20 23 23 23 22 21 22 26 28 35 41 45 45 44 43 39 37 37 35 35 30 29 26 26 28 28 28 27 28 30 29
32 30 30 27 25 23 22 22 22 22 22 20 18 21 26 25 25 26 27 29 28 30 34 38 41 42 41 38 36 36 35 32 31 30 27 25 26 26 26 26 26 26 28 28
34 32 32 27 23 20 23 20 14 16 19 20 20 26 25 28 31 30 30 29 31 34 35 38 39 37 36 35 35 30 30 30 29 27 22 23 25 25 25 26 28 27 28 28
38 35 32 26 22 24 22 17 18 17 19 22 22 23 27 27 34 34 33 32 32 37 38 37 35 32 29 28 29 29 28 25 21 20 22 24 25 26 28 28 27 26 28 28
34 36 28 31 23 17 24 22 23 20 21 28 27 30 32 28 32 35 36 36 37 36 33 30 27 29 29 27 27 27 26 26 23 24 27 28 29 29 28 27 26 28 28 27
29 31 28 26 20 26 31 25 25 15 23 30 31 33 35 35 38 37 37 30 29 29 29 30 29 28 27 27 26 25 26 26 27 28 30 29 30 28 26 25 27 27 27 28
29 28 28 34 29 22 27 24 23 32 34 34 34 35 35 36 38 37 32 28 29 29 28 29 28 27 24 25 26 26 25 27 28 28 27 26 26 25 26 26 27 28 27 27
29 34 30 32 31 35 35 36 38 38 37 37 38 39 39 38 38 32 27 30 31 31 31 31 30 27 24 24 26 27 26 25 26 26 25 26 26 26 26 27 26 26 25 25
33 34 32 29 32 37 40 40 39 40 40 38 36 36 38 38 35 28 32 32 31 30 28 28 27 26 27 28 28 29 30 27 26 25 25 25 26 26 27 27 27 27 26 25
33 31 30 30 39 39 38 39 40 38 37 34 34 34 33 33 33 31 30 29 28 27 29 31 31 31 30 30 31 28 23 24 23 24 24 26 26 27 28 29 29 27 27 26
34 32 27 30 39 37 36 37 37 35 35 35 34 33 33 33 32 30 28 28 30 32 33 32 32 31 26 21 20 21 22 22 23 23 24 25 26 27 28 28 28 29 28 28

GFSCGP_sfc_30mbdewp_054.txt.gz
Dewpoint
30 28 25 26 28 29 24 22 19 20 24 31 29 28 28 36 40 37 38 44 42 44 45 46 48 50 52 56 57 56 56 56 55 55 54 53 51 50 48 47 47 48 48 48
27 27 29 27 28 30 29 25 21 23 22 30 27 28 30 35 37 34 33 35 36 38 42 47 49 50 52 57 57 56 56 55 55 56 56 55 52 49 47 47 47 48 45 43
25 25 30 29 28 28 27 28 25 22 23 22 19 22 24 29 35 36 34 32 33 36 40 48 51 52 56 58 57 56 56 56 55 56 56 52 49 47 47 47 47 46 43 42
28 31 28 27 26 26 25 29 28 25 18 11 22 17 24 23 32 34 34 32 33 38 41 50 52 55 56 58 58 57 57 56 56 58 56 50 47 45 46 46 46 44 42 41
22 29 28 24 24 27 26 30 28 26 24 22 22 18 21 26 23 30 34 34 34 41 42 50 54 56 58 58 58 58 57 57 57 58 55 50 46 46 46 47 46 44 42 41
24 31 28 26 30 29 29 26 30 30 28 21 21 21 19 23 23 25 31 35 37 44 44 50 56 58 58 58 58 58 58 57 57 57 53 50 46 46 46 46 45 44 44 42
26 25 28 31 25 27 27 24 20 19 19 18 25 23 21 26 27 27 28 37 39 44 48 53 56 57 58 58 58 58 57 57 55 54 51 49 46 46 46 46 45 43 39 38
21 19 26 29 27 26 29 25 18 15 17 19 26 22 23 30 31 31 30 34 43 46 50 53 55 56 57 57 57 57 57 54 50 49 48 47 45 44 44 43 40 39 39 36
20 25 35 34 32 29 28 26 29 25 30 25 22 22 29 31 33 35 36 38 44 49 53 54 55 55 56 56 56 56 53 51 47 48 45 41 40 39 39 40 39 37 34 32
24 23 31 33 32 30 25 28 25 26 14 13 15 19 25 28 31 35 36 37 45 48 51 53 54 54 53 53 51 50 49 47 48 45 42 39 38 39 40 40 40 36 34 32
30 24 24 33 27 23 23 22 23 23 21 17 17 15 21 29 31 35 37 40 45 46 47 49 51 52 51 49 47 46 46 47 48 43 40 38 40 40 40 39 36 32 33 31
29 28 23 22 30 33 32 27 26 21 16 23 20 17 24 28 30 33 36 43 45 45 44 46 47 49 47 46 46 47 46 47 44 39 39 41 40 41 41 37 34 34 31 31
29 26 23 23 26 29 29 26 23 28 26 19 18 18 24 24 28 29 27 36 44 45 43 42 43 46 46 46 46 47 44 40 39 40 40 40 39 40 39 38 35 35 31 30
30 27 21 20 20 22 22 23 23 22 19 20 22 20 22 23 22 25 25 29 41 45 44 42 41 43 45 46 46 43 42 42 42 41 40 39 40 39 36 33 31 30 30 29
28 22 25 23 23 26 24 23 24 22 23 20 21 23 22 23 23 23 25 26 37 43 44 43 42 44 46 47 43 42 42 41 42 39 36 37 32 31 32 32 30 30 30 29
32 22 24 22 27 25 24 23 23 23 22 22 22 21 24 23 23 23 23 27 29 35 37 40 45 47 47 45 42 42 41 39 37 31 29 30 32 32 33 31 28 28 29 29
29 27 26 21 25 24 22 22 22 22 23 22 19 23 26 26 27 29 31 30 32 36 42 45 46 46 45 42 42 40 36 32 29 28 29 31 31 29 28 27 28 27 27 29
32 30 29 24 24 20 24 26 24 21 22 24 24 27 29 30 32 32 31 34 35 37 39 40 39 37 37 36 33 32 32 31 28 27 28 27 27 28 29 31 28 29 28 27
36 33 30 26 24 25 24 20 16 17 22 25 26 30 33 34 34 35 37 38 37 35 31 30 30 30 30 30 30 27 24 25 26 27 27 30 34 36 33 29 28 28 27 28
35 34 30 30 24 22 22 23 22 23 20 29 31 31 29 30 24 34 34 31 30 29 29 28 27 27 27 27 27 26 25 26 26 26 29 36 35 30 28 28 28 28 28 28
29 31 30 26 24 20 26 26 25 11 15 32 34 35 34 32 36 32 29 30 29 27 26 25 25 25 26 26 26 26 26 25 28 34 35 31 30 29 28 26 26 27 27 27
26 28 29 29 23 23 32 26 20 27 35 35 36 36 37 39 32 30 29 28 28 27 26 25 24 24 26 26 25 26 27 28 29 27 27 26 26 26 26 26 26 27 27 27
27 26 26 30 28 34 36 33 36 37 36 38 38 39 39 33 29 30 30 30 29 29 28 27 25 25 28 29 28 27 28 27 26 26 25 25 26 25 26 26 26 26 26 25
33 38 32 33 36 38 38 40 40 39 36 35 36 38 37 29 31 31 30 29 29 28 28 28 28 29 29 30 30 29 29 28 26 25 24 25 24 25 26 26 27 27 27 26
33 33 32 38 38 38 39 39 36 35 35 34 34 34 32 32 31 29 29 28 29 31 31 31 30 29 28 27 25 23 22 23 23 23 24 24 25 26 26 26 27 28 28 28
33 31 30 32 38 36 37 36 36 35 34 34 33 32 32 31 29 28 29 31 32 31 31 29 27 22 22 23 24 26 28 27 26 26 26 26 26 27 27 27 27 29 29 28

GFSCGP_sfc_30mbdewp_057.txt.gz
Dewpoint
31 27 25 26 25 27 28 25 23 23 23 26 25 30 29 38 43 46 52 51 53 54 54 54 56 53 53 55 57 56 56 55 55 54 53 52 51 50 49 48 48 48 48 44
28 27 28 29 30 26 27 27 26 25 24 27 28 27 29 35 40 44 48 50 47 50 51 52 52 50 52 55 56 56 56 55 54 54 54 53 51 49 48 47 47 48 48 44
25 25 30 29 28 26 25 26 26 25 25 29 22 22 25 32 39 40 43 49 44 45 46 48 47 50 52 55 56 56 55 55 54 55 54 52 48 47 46 46 47 47 45 43
27 30 28 28 26 27 23 28 28 28 23 16 22 14 24 29 37 37 37 41 41 42 43 45 47 49 51 54 56 56 56 55 55 56 53 51 49 46 46 45 47 46 44 42
23 28 28 25 24 27 24 29 28 27 25 23 22 19 19 25 31 35 35 34 35 37 40 45 47 49 52 56 56 57 56 56 56 56 55 51 49 46 46 46 46 45 43 43
23 31 28 25 28 29 29 28 28 29 27 20 22 20 19 23 25 30 35 35 33 35 39 45 49 51 54 57 57 57 56 56 56 57 55 52 49 46 45 46 46 44 43 41
26 26 28 32 26 28 27 24 18 17 18 17 24 23 22 23 25 25 29 35 35 37 41 48 52 54 56 57 57 57 57 56 57 57 55 53 50 46 45 46 45 44 41 39
19 17 25 28 27 25 28 24 17 13 15 17 26 22 21 29 34 32 30 34 37 40 45 52 54 56 56 57 57 58 57 57 57 56 55 53 50 47 46 46 45 41 39 36
22 20 33 33 31 28 27 24 26 24 29 24 22 21 27 30 32 35 32 39 39 42 47 51 55 56 57 57 57 57 57 57 54 54 52 50 47 45 43 42 40 37 38 41
21 17 30 32 33 31 27 30 23 26 16 14 15 19 19 26 27 33 36 35 44 46 50 53 55 56 57 57 57 57 57 55 52 50 47 45 43 41 40 40 40 40 40 40
27 20 23 31 27 24 27 24 24 25 20 16 16 17 19 27 29 27 30 38 44 48 51 53 54 55 56 56 55 55 53 52 49 45 41 40 41 41 41 40 40 42 40 38
26 23 18 19 29 32 26 24 24 19 18 23 20 16 22 25 30 32 34 38 44 47 50 52 53 54 53 53 52 52 51 49 47 41 40 41 41 42 42 42 40 39 40 40
29 25 19 19 25 31 29 28 28 27 25 20 17 18 23 24 26 30 32 36 43 46 47 49 51 52 52 51 49 48 46 43 41 41 41 42 44 43 39 38 40 39 38 38
28 27 22 19 19 23 25 25 24 25 20 20 21 19 22 22 23 25 29 29 35 45 45 44 46 49 50 49 47 44 41 40 40 41 42 43 42 42 41 40 38 37 35 32
28 23 24 23 23 22 22 22 25 23 24 21 21 22 23 25 23 23 25 26 34 40 45 43 43 45 47 46 44 43 43 43 43 43 43 43 43 41 37 35 32 32 32 30
30 23 24 24 27 26 24 24 23 23 23 24 23 22 25 24 27 26 26 28 34 37 41 44 44 44 46 45 43 44 44 44 44 42 39 36 34 33 33 34 32 30 29 29
28 26 23 19 25 24 23 24 24 23 23 22 19 21 26 28 29 30 32 34 35 40 43 45 46 47 44 43 43 43 41 35 34 34 34 34 34 31 29 28 30 32 32 31
28 26 25 20 24 17 21 27 25 23 23 24 24 26 28 30 34 36 36 37 38 39 39 39 40 40 39 36 33 32 32 32 32 32 30 28 29 31 35 38 38 33 29 28
34 29 26 21 22 22 24 21 21 19 21 26 28 30 33 35 34 35 34 33 31 31 30 30 31 32 31 31 30 28 29 28 27 28 32 36 37 37 37 34 30 29 28 27
34 33 25 26 24 23 26 27 22 23 17 27 29 32 33 32 22 32 31 30 29 28 28 28 27 27 26 25 26 25 26 26 28 30 36 38 37 33 30 29 28 27 27 27
33 31 28 27 26 26 27 25 22 15 16 29 31 32 32 30 30 32 30 27 26 25 25 26 26 26 26 26 25 24 26 27 32 35 34 31 30 29 28 26 26 27 27 27
30 31 30 27 26 26 29 28 18 21 33 33 35 37 36 32 30 30 28 27 25 24 24 25 25 26 27 27 26 27 28 30 29 28 27 26 26 26 26 26 25 26 26 26
27 29 29 30 29 32 35 28 34 35 34 36 37 38 34 31 30 29 28 27 26 26 25 26 29 29 29 28 28 28 28 27 26 25 24 24 25 25 25 25 25 25 25 25
33 34 29 31 35 37 38 39 38 38 37 38 39 38 32 31 30 29 29 28 28 27 27 29 29 29 29 30 28 27 25 26 26 25 25 25 25 26 26 26 26 26 26 26
34 35 35 36 38 38 39 37 36 36 35 35 34 32 32 31 30 29 28 28 31 31 30 29 28 26 23 25 27 29 29 29 28 28 28 28 28 28 27 27 27 27 28 28
34 34 33 30 37 34 37 36 36 35 34 33 32 31 31 30 28 29 30 31 30 30 28 24 25 24 25 28 29 29 30 28 26 25 25 26 26 27 27 27 26 27 27 28

GFSCGP_sfc_30mbdewp_060.txt.gz
Dewpoint
31 27 25 26 24 24 26 25 24 23 26 25 24 28 31 42 50 52 52 53 53 52 52 54 55 56 54 55 56 57 56 56 56 56 55 54 53 52 50 51 50 48 46 44
28 26 28 28 30 28 27 25 24 26 26 25 26 26 30 38 44 50 51 52 52 54 54 54 54 55 53 54 56 56 56 55 56 56 54 53 52 50 49 48 48 48 45 42
24 24 30 29 28 26 25 24 24 25 27 28 24 22 26 30 39 43 49 51 51 52 53 54 53 54 53 54 55 55 56 55 55 54 53 50 49 48 47 47 47 47 46 42
24 27 27 28 27 27 23 26 27 27 24 18 21 14 21 26 32 38 43 49 50 49 51 52 52 51 52 53 55 56 56 55 54 54 52 50 49 47 46 46 47 47 46 43
21 26 28 26 26 27 25 28 28 28 25 23 22 19 18 26 28 34 38 42 48 47 47 48 50 49 51 53 55 56 56 55 55 55 53 51 49 48 47 46 46 46 44 42
23 31 29 26 27 27 29 29 27 27 26 21 22 21 19 22 25 30 37 37 40 44 43 44 46 48 50 54 55 56 55 55 55 55 54 52 51 49 46 45 45 45 42 41
26 26 28 30 26 28 27 23 18 15 17 16 24 23 22 24 27 27 32 37 36 38 39 41 44 48 51 54 55 56 56 55 56 55 55 54 52 50 47 45 45 44 41 39
19 16 25 28 26 24 28 23 20 13 13 16 24 20 19 28 31 34 31 31 37 35 36 40 44 49 52 54 55 56 56 56 56 56 56 55 53 50 47 46 46 43 40 38
20 18 31 33 31 27 28 22 25 24 28 24 21 22 19 28 30 34 33 36 35 36 37 41 47 51 54 55 56 56 56 57 57 57 56 54 52 49 47 46 43 41 38 39
21 15 29 32 33 32 27 30 24 24 18 16 16 17 16 18 25 31 32 33 40 41 43 46 50 54 55 56 56 57 57 57 56 56 55 54 51 47 45 43 41 39 41 42
25 18 22 31 27 24 27 26 25 25 21 16 15 15 21 19 26 28 30 36 37 45 45 48 52 55 56 57 57 57 57 57 55 54 52 49 46 43 42 41 40 42 42 40
25 21 16 19 29 28 27 26 25 21 19 23 21 18 21 20 24 31 30 36 39 44 48 50 52 54 55 56 56 56 55 55 52 48 45 43 42 41 41 41 43 43 41 43
27 21 14 16 24 31 29 28 27 26 25 21 19 20 23 24 23 26 30 32 39 44 47 50 52 53 54 55 54 54 53 50 45 43 42 42 42 41 42 43 42 42 42 41
26 25 16 13 15 23 26 27 28 26 23 22 21 21 21 21 23 24 25 30 31 40 46 47 50 51 52 51 50 48 46 46 44 43 43 43 44 43 42 41 41 40 39 38
26 20 24 22 22 23 21 22 25 25 23 20 21 21 22 24 24 24 24 25 28 31 42 45 46 48 49 48 46 44 43 43 44 44 44 44 44 44 42 39 39 40 39 37
29 22 24 22 26 26 24 24 25 25 24 24 23 22 25 25 27 27 28 29 36 39 41 44 43 45 47 46 45 44 44 44 44 43 43 43 43 39 38 38 37 35 32 32
27 25 23 21 25 25 22 24 24 24 24 23 21 23 25 26 28 31 34 37 40 42 44 45 46 45 45 44 44 44 43 41 40 39 38 37 36 35 34 32 34 37 38 37
28 25 24 20 23 19 22 27 26 25 24 24 23 24 26 30 35 35 36 38 37 38 39 40 40 39 37 37 35 35 36 36 34 33 32 31 31 35 38 38 38 39 36 32
33 27 23 20 21 21 21 24 23 22 17 25 24 29 32 35 35 33 31 31 31 31 31 31 31 32 32 31 31 31 31 30 31 35 36 37 37 37 37 38 37 32 29 28
32 30 23 24 19 17 21 25 23 21 17 26 29 31 32 33 23 30 30 29 28 28 28 28 27 27 27 28 28 27 28 31 34 37 37 37 38 38 34 31 29 28 27 27
31 30 23 24 23 25 29 25 22 18 19 26 30 32 33 28 28 31 27 26 26 26 26 26 26 26 26 26 26 28 30 33 35 36 36 33 30 28 28 26 26 26 26 26
30 28 28 26 25 24 28 24 20 22 28 31 32 33 33 32 30 28 26 25 25 25 25 26 27 27 27 28 28 29 29 29 28 27 26 25 25 26 26 25 25 25 26 25
30 31 29 29 28 32 31 27 29 30 30 34 33 36 33 31 29 28 25 25 25 26 28 29 28 28 29 28 29 28 28 27 27 26 25 26 26 27 27 27 27 27 26 26
32 33 29 30 32 34 37 38 37 37 35 37 38 34 32 30 29 27 26 26 26 28 28 28 29 26 25 28 29 29 28 27 27 27 27 25 24 25 25 25 26 25 25 25
34 34 32 32 35 38 38 38 36 36 37 37 34 33 32 30 28 27 27 28 29 29 29 26 24 25 28 28 28 28 27 25 24 23 24 24 25 25 24 24 25 25 26 26
36 33 31 30 32 31 33 37 36 36 35 35 33 32 31 30 28 28 30 30 29 25 24 24 25 28 27 23 23 24 25 22 20 21 23 23 22 22 21 21 20 21 22 23

GFSCGP_sfc_30mbdewp_063.txt.gz
Dewpoint
31 27 25 25 25 24 23 23 23 23 28 27 28 28 32 50 50 51 51 52 53 52 52 53 53 54 54 56 57 58 59 59 58 57 57 57 58 57 56 56 55 52 49 48
28 27 28 27 27 28 27 26 24 25 26 26 26 25 30 46 48 50 50 51 52 52 52 53 54 55 54 54 56 57 58 57 57 56 56 57 56 55 55 54 53 51 49 47
26 25 29 28 29 27 26 25 24 23 28 27 25 20 28 32 44 48 51 51 52 52 52 53 53 54 55 54 55 56 57 57 57 57 56 53 52 51 51 52 50 49 47 45
25 26 26 29 27 28 25 26 26 26 26 20 22 14 19 26 33 41 45 50 51 52 53 53 53 54 55 55 56 56 57 57 57 57 55 54 54 52 51 51 49 48 46 44
20 26 28 27 27 28 25 29 28 28 27 24 23 19 21 26 25 30 37 44 50 51 51 53 53 54 55 55 56 57 56 56 56 56 56 55 54 53 52 50 48 48 48 45
22 30 29 27 27 27 30 30 26 27 26 21 23 21 20 21 24 28 31 38 44 49 50 51 52 53 53 55 56 56 56 56 56 56 56 54 53 51 50 49 48 47 46 44
25 26 29 28 27 29 27 24 19 18 20 18 25 23 22 25 26 28 30 35 40 45 48 48 48 50 51 53 55 56 56 55 56 56 55 54 53 52 51 50 48 46 44 43
19 17 25 29 26 24 26 25 21 14 15 17 24 20 20 26 29 32 36 34 36 40 44 46 46 48 50 52 54 55 55 55 56 56 56 55 54 53 52 49 48 47 45 43
20 18 27 31 30 27 28 23 26 24 28 23 21 22 20 25 25 32 34 34 35 37 38 41 43 47 49 51 53 55 55 55 56 56 56 56 56 54 52 49 49 47 44 42
23 17 29 32 33 32 27 29 25 25 18 16 17 17 15 19 22 29 28 33 36 40 38 39 41 46 50 52 52 55 55 55 56 56 56 56 56 54 52 50 48 46 42 41
24 18 21 31 29 26 28 28 26 25 22 18 16 16 23 20 21 27 29 34 37 40 43 43 45 49 51 53 54 55 55 55 56 56 57 56 56 54 51 49 47 43 42 42
24 21 16 19 28 29 28 27 27 23 21 24 22 19 23 24 23 25 31 32 38 40 44 47 49 52 54 54 55 55 56 56 57 56 56 55 52 49 47 45 44 44 42 43
26 21 15 17 24 31 28 27 27 27 26 22 21 20 24 24 24 26 25 30 33 41 45 49 51 52 54 55 56 56 55 56 54 51 49 47 46 45 45 44 44 44 44 43
25 22 17 15 15 23 25 27 28 25 23 23 23 23 23 24 23 24 26 28 30 33 43 47 50 52 53 54 54 55 53 51 47 47 46 46 45 44 44 44 44 44 43 40
24 18 22 19 18 23 22 23 28 26 26 23 24 23 24 24 24 25 26 26 27 31 34 45 47 50 51 51 49 48 48 47 47 46 45 45 45 45 44 43 42 41 41 41
29 21 24 21 25 23 21 22 24 27 26 25 24 23 25 26 27 26 30 32 39 42 44 44 45 48 49 47 46 45 46 46 46 45 44 44 43 42 41 41 41 40 36 34
28 25 24 20 25 25 23 24 24 25 26 25 23 25 26 26 27 31 36 40 41 42 43 44 44 46 46 45 45 45 44 44 43 43 42 40 39 39 38 36 35 36 39 40
29 27 26 22 24 20 24 27 26 25 25 26 24 24 25 27 34 34 36 39 38 39 40 40 40 40 40 40 41 41 39 39 38 36 35 35 35 37 39 40 39 39 40 38
31 27 24 22 22 23 21 23 24 22 18 23 24 25 29 35 34 33 31 33 34 34 34 34 35 35 36 37 37 36 34 33 34 35 37 38 38 38 38 38 39 36 32 31
32 30 26 23 20 19 22 23 26 22 17 22 25 27 33 34 29 31 30 30 30 30 31 31 31 32 32 32 33 34 34 35 36 37 37 38 40 39 36 32 30 30 28 27
30 28 25 23 22 23 26 27 24 19 20 23 28 31 35 30 31 32 29 28 29 29 28 29 29 28 28 30 33 34 35 35 36 36 31 29 28 27 27 27 27 27 27 28
29 28 26 25 23 22 30 23 22 25 26 27 32 35 35 32 30 29 28 27 27 27 27 27 27 27 29 30 30 28 28 27 27 26 26 26 27 27 28 28 28 28 27 27
31 30 27 27 26 32 28 27 27 28 27 31 33 36 33 31 29 27 26 26 26 27 26 27 27 28 28 27 28 27 27 26 27 27 27 26 25 23 22 21 19 18 18 19
33 35 31 30 31 32 34 36 37 36 32 35 37 35 33 31 28 26 26 26 27 27 28 26 26 26 27 28 28 28 28 27 25 23 21 20 18 17 17 16 16 17 19 20
34 34 33 32 33 36 37 38 38 36 38 37 35 34 33 30 27 26 26 27 28 28 25 26 27 26 26 25 23 21 21 20 19 19 18 17 17 16 15 16 17 18 20 21
36 33 31 29 32 30 30 36 38 36 37 35 33 32 31 29 28 27 28 29 27 25 25 27 26 23 21 21 20 19 19 18 16 15 15 16 16 16 16 16 16 20 20 20

GFSCGP_sfc_30mbdewp_066.txt.gz
Dewpoint
30 26 23 19 21 22 19 19 19 21 25 25 24 25 24 39 45 44 48 48 49 50 48 51 53 53 50 51 53 54 55 57 60 59 54 52 53 56 59 61 60 59 57 56
29 25 25 27 25 25 23 21 21 22 25 25 24 22 26 36 44 42 44 47 48 48 50 49 50 52 53 54 55 55 56 58 59 56 54 52 53 54 57 60 59 58 56 54
23 25 28 27 27 25 23 22 22 21 24 26 25 21 22 29 40 43 44 44 47 48 49 50 49 51 52 52 54 55 56 57 58 56 54 53 55 56 57 58 58 57 54 52
23 26 26 26 23 24 21 24 24 23 24 18 23 11 16 24 29 37 42 45 45 47 48 48 50 51 52 52 52 55 56 57 58 57 54 52 52 52 54 57 57 54 52 50
22 24 25 23 24 26 23 28 26 26 25 23 22 16 16 23 21 25 33 40 45 46 48 47 48 50 52 52 53 53 54 56 58 58 56 55 54 53 55 56 55 53 50 48
21 28 27 25 28 27 30 29 28 28 26 19 21 19 13 15 19 23 26 30 38 45 46 47 48 48 50 54 55 55 54 55 57 59 58 57 56 56 56 55 53 52 51 46
22 22 27 28 26 29 28 26 20 21 19 16 23 19 16 18 24 25 28 33 34 36 45 47 47 49 48 51 55 56 55 54 56 58 58 58 57 57 56 54 53 51 50 48
18 17 23 27 24 23 26 24 20 13 14 14 23 14 14 23 24 28 33 35 34 37 38 44 48 48 50 50 54 55 55 55 56 57 57 58 58 57 57 54 53 51 49 49
17 15 23 27 28 25 28 24 26 25 28 22 16 17 18 20 24 29 25 32 35 35 38 41 44 48 49 51 52 54 54 54 55 57 57 57 57 56 55 55 53 51 50 49
21 16 22 30 31 30 28 27 23 24 18 14 15 16 12 16 18 22 22 25 33 40 38 37 40 44 47 50 52 54 54 53 53 56 57 57 57 57 56 56 52 51 52 49
20 18 25 30 27 23 28 25 25 24 22 17 14 15 19 17 18 22 23 28 30 35 40 40 40 40 44 48 50 52 54 52 53 54 56 57 56 57 57 56 53 52 50 47
22 20 18 20 27 29 26 24 25 20 19 23 24 19 20 20 25 24 26 31 32 37 40 44 44 45 46 48 49 50 52 52 52 54 56 56 57 56 53 51 49 48 46 44
23 20 17 18 23 29 24 25 25 25 27 20 20 19 24 25 26 27 26 27 31 35 39 44 47 49 50 51 51 52 54 54 55 56 56 52 50 49 48 46 46 44 44 44
26 19 18 16 14 16 19 22 24 22 21 18 18 17 19 22 23 24 26 28 29 32 35 41 46 48 51 53 55 56 55 55 53 52 49 48 47 46 46 46 45 45 45 43
25 18 20 18 16 15 16 15 17 20 19 15 20 18 19 21 23 25 27 28 28 29 30 38 45 50 52 53 54 54 52 49 49 48 47 47 46 46 45 45 43 43 42 42
27 20 22 21 19 19 17 18 18 21 20 22 23 20 21 24 27 27 28 29 34 40 41 41 45 50 51 51 50 51 50 49 48 47 46 45 44 44 44 42 41 41 40 38
29 23 24 19 25 24 23 24 21 23 26 24 20 20 22 25 26 27 32 36 39 42 44 45 47 48 48 48 48 48 48 48 46 44 44 43 43 42 40 37 36 35 37 38
32 28 27 21 26 22 20 27 24 23 23 24 24 23 25 25 29 33 36 39 40 41 42 43 44 45 46 46 45 45 44 44 43 42 42 41 39 37 37 39 39 40 39 39
34 31 29 26 22 21 23 24 25 25 22 24 25 24 22 29 32 33 36 39 40 40 40 41 42 43 43 43 42 41 39 39 39 38 38 38 38 39 39 38 39 39 36 31
34 34 30 28 23 22 23 24 27 27 20 23 23 23 24 32 27 25 34 36 36 37 38 38 39 40 40 40 39 38 37 36 36 35 36 37 38 39 38 34 30 29 27 24
33 32 30 29 28 26 28 27 26 21 23 25 25 26 30 31 30 35 34 34 34 35 36 36 37 37 38 38 37 36 36 35 36 36 33 31 30 28 27 26 26 25 26 28
31 31 30 31 29 25 30 26 23 26 33 29 31 30 33 35 34 33 32 32 32 33 33 33 34 35 36 36 35 34 33 32 30 29 27 27 26 25 26 27 27 25 22 20
29 32 30 30 28 37 30 28 29 32 30 32 31 33 36 34 32 32 31 31 31 31 31 31 32 32 31 30 30 29 28 28 27 26 25 25 23 21 18 16 14 12 13 16
31 35 34 32 29 32 34 32 36 33 32 33 34 35 37 33 32 31 30 30 30 29 29 29 29 28 28 29 29 28 26 25 23 23 21 19 15 13 12 10 11 12 17 18
31 35 31 32 32 35 36 37 36 36 37 37 36 36 35 33 31 30 29 29 29 28 27 28 28 27 26 24 23 23 22 21 19 16 14 13 14 12 11 13 15 16 19 20
35 33 34 33 34 33 31 38 38 38 37 37 36 35 34 32 30 29 29 29 28 27 27 27 26 25 22 20 19 18 16 15 13 11 11 14 14 14 12 11 13 20 19 19

GFSCGP_sfc_30mbdewp_069.txt.gz
Dewpoint
26 24 23 21 21 19 17 16 17 19 22 22 23 25 23 34 39 41 44 44 45 45 47 50 48 49 46 48 48 50 54 56 57 56 53 49 47 48 50 56 59 60 60 59
25 24 24 23 18 18 18 18 19 21 21 22 21 19 19 31 38 39 41 45 44 46 47 49 50 49 49 50 50 50 51 54 55 53 51 47 47 47 50 58 60 60 59 58
22 23 23 24 22 22 22 21 22 20 22 21 18 17 19 26 35 37 37 41 43 46 43 46 48 50 49 49 51 51 51 51 53 52 51 49 49 49 50 56 58 59 58 57
21 22 24 23 22 23 20 22 22 22 21 25 23 17 20 19 26 35 35 38 41 44 44 45 45 47 50 50 51 53 52 51 53 54 51 50 48 48 49 54 57 57 57 57
18 19 24 22 22 22 21 25 23 23 23 21 18 12 18 15 16 24 32 37 38 41 42 43 46 45 47 50 51 53 52 52 53 56 53 51 50 50 51 54 57 58 56 55
18 22 22 21 23 25 24 24 25 25 23 20 19 16 18 18 14 18 23 31 36 38 41 41 42 46 47 51 53 52 52 53 53 55 56 54 53 52 50 55 56 56 55 54
19 21 22 25 23 25 26 24 22 20 19 18 20 17 14 17 19 21 22 27 30 35 40 42 40 41 44 48 51 53 52 51 53 55 56 57 56 55 54 56 55 56 54 53
16 15 20 24 23 24 23 23 22 18 18 17 18 10 13 16 18 19 23 27 32 34 34 41 42 43 43 45 50 53 52 52 51 55 57 58 58 57 58 58 56 56 54 54
15 15 19 21 23 23 23 22 23 23 22 20 17 16 16 15 16 21 19 22 28 34 35 35 41 43 45 46 48 54 53 53 52 54 57 58 58 58 58 59 57 56 55 53
18 15 17 20 24 23 25 27 22 21 17 18 14 13 13 15 18 18 18 20 26 36 35 37 37 41 45 47 49 52 53 51 52 54 57 57 58 58 58 57 56 55 54 52
18 18 18 23 23 20 22 24 23 21 21 19 15 13 18 16 16 17 20 21 23 27 36 36 37 40 44 47 49 52 53 53 51 53 56 57 57 57 57 57 57 56 54 54
20 19 17 21 21 20 22 22 23 20 18 21 20 19 19 19 19 22 21 23 24 28 31 38 40 40 41 45 48 50 53 53 52 52 54 57 57 57 57 57 53 51 47 46
21 18 18 17 20 24 22 23 23 23 22 20 25 21 19 20 22 22 22 22 24 28 29 36 41 43 44 45 47 49 51 52 51 52 56 56 54 52 50 47 46 45 45 45
25 18 19 17 17 20 20 18 21 22 24 22 20 17 16 17 20 21 22 23 22 26 29 32 38 43 47 49 49 50 55 56 56 54 53 50 49 48 47 46 45 46 46 45
23 19 18 17 17 15 15 17 17 19 20 19 19 17 14 17 18 20 24 26 27 25 26 31 37 43 47 52 54 55 52 52 51 49 49 48 47 47 46 45 45 44 44 43
25 22 21 16 17 16 14 13 15 14 13 14 14 14 17 20 18 20 23 26 27 32 35 32 37 46 50 53 54 51 50 49 49 48 47 47 46 45 44 44 44 42 42 42
25 26 20 19 18 18 18 17 16 16 17 17 17 18 19 19 19 21 22 28 32 38 41 41 44 50 51 51 51 50 49 48 47 46 46 45 45 44 42 41 40 39 38 38
27 26 25 25 27 21 22 22 20 18 18 19 20 19 18 19 21 28 31 30 37 40 43 45 47 48 49 49 49 49 47 46 45 44 44 43 42 39 38 37 37 38 39 39
31 30 27 26 25 21 19 23 23 20 18 19 19 19 20 21 28 30 33 35 39 41 43 44 45 46 46 46 46 45 45 44 43 42 41 40 40 38 39 39 39 39 39 38
31 34 31 29 24 22 21 22 26 22 20 22 21 21 22 25 25 19 35 39 40 40 41 42 43 43 43 42 42 41 41 41 40 39 39 38 38 38 39 39 37 33 30 27
33 34 34 30 27 23 21 23 27 23 24 22 23 23 23 25 26 35 37 38 38 38 39 40 41 41 40 41 41 40 39 38 37 37 37 37 36 34 31 30 28 25 25 26
32 31 34 33 30 27 29 28 24 28 28 29 27 26 27 33 37 36 37 36 36 36 37 38 39 39 40 40 39 37 36 37 35 33 32 30 28 26 26 27 26 24 22 21
33 33 32 30 30 32 31 28 30 31 33 31 32 30 31 38 35 35 35 35 35 35 35 36 37 38 38 37 36 34 32 31 31 31 28 26 24 21 20 19 16 13 14 17
24 24 30 31 30 31 33 33 32 34 34 32 35 33 34 38 35 34 33 33 34 34 33 34 35 34 33 32 31 31 30 30 28 26 24 21 19 15 12 9 10 12 17 19
23 24 26 26 27 26 33 37 36 35 36 35 34 33 34 36 34 33 32 32 32 32 32 32 32 31 30 30 29 28 26 25 23 20 17 15 14 12 13 13 15 17 22 21
25 28 32 30 29 32 31 39 41 38 37 38 36 35 36 35 33 32 32 32 31 31 30 30 30 29 27 26 24 23 22 20 17 14 14 17 17 15 10 10 17 18 19 18